TimeEST,TemperatureF,Dew PointF,Humidity,Sea Level PressureIn,VisibilityMPH,Wind Direction,Wind SpeedMPH,Gust SpeedMPH,PrecipitationIn,Events,Conditions,WindDirDegrees,DateUTC
12:52 AM,36.0,27.0,70,29.99,10.0,West,9.2,-,0.00,,Overcast,270,2013-01-07 05:52:00
1:52 AM,36.0,26.1,67,30.02,10.0,West,11.5,-,N/A,,Overcast,260,2013-01-07 06:52:00
3:52 AM,36.0,27.0,70,30.05,10.0,West,9.2,-,N/A,,Overcast,260,2013-01-07 08:52:00
4:52 AM,36.0,27.0,70,30.08,10.0,West,6.9,-,N/A,,Overcast,280,2013-01-07 09:52:00
5:03 AM,35.6,26.6,70,30.06,10.0,West,9.2,-,N/A,,Overcast,280,2013-01-07 10:03:00
5:12 AM,35.6,26.6,70,30.06,10.0,West,10.4,17.3,N/A,,Overcast,270,2013-01-07 10:12:00
5:21 AM,35.6,26.6,70,30.07,10.0,West,8.1,17.3,N/A,,Overcast,270,2013-01-07 10:21:00
5:52 AM,36.0,26.1,67,30.12,10.0,West,13.8,-,N/A,,Overcast,260,2013-01-07 10:52:00
6:52 AM,32.0,25.0,75,30.17,9.0,NW,5.8,-,N/A,,Overcast,320,2013-01-07 11:52:00
7:26 AM,30.2,19.4,64,30.18,10.0,West,10.4,-,N/A,,Overcast,280,2013-01-07 12:26:00
7:52 AM,28.9,19.0,67,30.23,10.0,Variable,5.8,-,N/A,,Overcast,0,2013-01-07 12:52:00
8:52 AM,27.0,16.0,63,30.29,10.0,Variable,3.5,-,N/A,,Overcast,0,2013-01-07 13:52:00
9:06 AM,26.6,15.8,64,30.27,10.0,NW,5.8,-,N/A,,Overcast,310,2013-01-07 14:06:00
9:52 AM,26.1,15.1,63,30.34,10.0,Variable,5.8,-,N/A,,Overcast,0,2013-01-07 14:52:00
10:52 AM,26.1,15.1,63,30.35,10.0,Variable,4.6,-,N/A,,Overcast,0,2013-01-07 15:52:00
11:52 AM,27.0,15.1,61,30.35,10.0,Calm,Calm,-,N/A,,Overcast,0,2013-01-07 16:52:00
12:52 PM,28.0,15.1,58,30.35,10.0,WNW,3.5,-,N/A,,Overcast,290,2013-01-07 17:52:00
1:27 PM,28.4,14.0,55,30.34,10.0,NW,5.8,-,N/A,,Partly Cloudy,310,2013-01-07 18:27:00
1:52 PM,30.0,14.0,51,30.37,10.0,NNW,4.6,-,N/A,,Clear,330,2013-01-07 18:52:00
2:52 PM,30.0,14.0,51,30.37,10.0,WNW,3.5,-,N/A,,Clear,290,2013-01-07 19:52:00
3:52 PM,28.0,15.1,58,30.38,10.0,West,4.6,-,N/A,,Clear,280,2013-01-07 20:52:00
4:52 PM,24.1,12.9,62,30.39,10.0,Calm,Calm,-,N/A,,Clear,0,2013-01-07 21:52:00
5:52 PM,19.0,10.9,71,30.39,10.0,Calm,Calm,-,N/A,,Clear,0,2013-01-07 22:52:00
6:52 PM,15.1,9.0,77,30.40,10.0,Calm,Calm,-,N/A,,Clear,0,2013-01-07 23:52:00
7:52 PM,12.0,7.0,80,30.40,10.0,Calm,Calm,-,N/A,,Clear,0,2013-01-08 00:52:00
8:52 PM,12.9,7.0,77,30.38,9.0,Calm,Calm,-,N/A,,Clear,0,2013-01-08 01:52:00
9:52 PM,17.1,10.0,74,30.37,9.0,ESE,4.6,-,N/A,,Clear,120,2013-01-08 02:52:00
10:52 PM,16.0,9.0,74,30.37,10.0,ESE,4.6,-,N/A,,Clear,110,2013-01-08 03:52:00
11:52 PM,17.1,10.0,74,30.35,8.0,East,8.1,-,N/A,,Clear,80,2013-01-08 04:52:00